FW0743 Weather Reports


time (UTC)temp
F
wind
direction
speed
knots
gust
knots
rain 1hr
in
rain 24hr
in
rain mn
in
humidity
%
barometer
mb
20260503200009 51 344 8.7 13.9 0.00 0.00 0.00 40 1010.8
20260503194512 50 335 6.1 17.4 0.00 0.00 0.00 44 1010.9
20260503193016 50 310 5.2 14.8 0.00 0.00 0.00 43 1011.0
20260503191523 52 321 6.1 14.8 0.00 0.00 0.00 41 1010.9
20260503190026 52 297 6.1 19.1 0.00 0.00 0.00 37 1010.9
20260503184516 51 334 8.7 17.4 0.00 0.00 0.00 34 1011.0
20260503183014 51 319 7.8 13.0 0.00 0.00 0.00 34 1011.3
20260503181519 51 133 3.5 16.5 0.00 0.00 0.00 35 1011.4
20260503180024 50 5 7.8 15.6 0.00 0.00 0.00 39 1011.8
20260503174531 49 24 5.2 18.2 0.00 0.00 0.00 37 1011.9
20260503173010 49 277 7.8 13.9 0.00 0.00 0.00 35 1012.0
20260503171517 49 314 5.2 17.4 0.00 0.00 0.00 35 1012.1
20260503081516 34 285 0.0 0.0 0.00 0.00 0.00 85 1013.7
20260503071514 35 285 0.0 0.0 0.00 0.01 0.00 82 1013.5
20260503054526 36 290 0.0 1.7 0.00 0.01 0.00 78 1013.6
20260503053004 36 294 0.0 2.6 0.00 0.01 0.00 78 1013.8
20260503051508 36 300 0.9 3.5 0.00 0.01 0.00 77 1013.9
20260503050012 36 294 0.9 2.6 0.00 0.01 0.00 77 1014.1
20260503044533 36 271 0.0 1.7 0.00 0.01 0.00 78 1014.1
20260503043036 36 317 0.0 2.6 0.00 0.01 0.00 76 1014.2
20260503041504 37 317 0.0 2.6 0.00 0.01 0.00 76 1014.2
20260503040008 37 319 0.9 2.6 0.00 0.01 0.00 77 1014.3
20260503034514 37 284 0.9 5.2 0.00 0.01 0.01 76 1014.4
20260503033018 37 297 2.6 6.1 0.00 0.01 0.01 76 1014.4
20260503031527 37 298 1.7 6.1 0.00 0.01 0.01 77 1014.4
20260503030008 37 325 1.7 4.3 0.00 0.01 0.01 78 1014.5
20260503024512 37 292 3.5 8.7 0.00 0.01 0.01 78 1014.6
20260503023014 37 290 1.7 4.3 0.00 0.02 0.01 80 1014.7
20260503021521 36 318 2.6 4.3 0.00 0.02 0.01 81 1014.7
20260503020022 36 290 0.9 5.2 0.00 0.03 0.01 82 1014.9
20260503014509 35 306 0.9 2.6 0.00 0.03 0.01 83 1014.9
20260503013013 35 285 0.0 2.6 0.00 0.03 0.01 82 1015.0
20260503011517 35 278 0.0 1.7 0.00 0.03 0.01 81 1015.0
20260503010027 36 292 0.0 2.6 0.00 0.04 0.01 79 1015.0
20260503004523 37 277 1.7 4.3 0.00 0.04 0.01 78 1014.9
20260503003011 37 309 2.6 7.0 0.00 0.04 0.01 77 1014.9
20260503001514 38 330 1.7 10.4 0.00 0.04 0.01 74 1014.9
20260503000035 39 319 3.5 7.8 0.00 0.04 0.01 70 1014.5
20260502234522 40 18 3.5 7.0 0.00 0.04 0.01 66 1014.3
20260502233029 41 355 4.3 9.6 0.00 0.04 0.01 62 1014.3
20260502231511 42 310 2.6 8.7 0.00 0.04 0.01 62 1014.4
20260502230016 42 309 6.1 9.6 0.00 0.04 0.01 60 1014.3
20260502224521 42 331 6.1 10.4 0.00 0.04 0.01 60 1014.2
20260502223013 43 302 1.7 8.7 0.00 0.04 0.01 59 1014.1
20260502221508 43 299 5.2 10.4 0.00 0.04 0.01 57 1014.1
20260502220013 43 306 7.0 11.3 0.00 0.04 0.01 57 1014.1
20260502214519 43 286 5.2 10.4 0.00 0.04 0.01 57 1014.0
20260502213022 44 5 5.2 10.4 0.00 0.04 0.01 57 1014.0
20260502211508 44 329 6.1 13.0 0.00 0.04 0.01 56 1014.1
20260502210012 44 319 5.2 13.9 0.00 0.04 0.01 59 1014.1
20260502204518 44 327 6.1 10.4 0.00 0.04 0.01 54 1014.0
20260502203022 45 343 5.2 10.4 0.00 0.04 0.01 56 1013.9
20260502201525 44 324 7.0 16.5 0.00 0.04 0.01 56 1014.0